C/2004 L1 ( LINEAR )

Japanese version
Home page
Updated on May 8, 2006

---------------------------------------------------------------------

* Profile

Discovery Date June 12, 2004
Magnitude 18.0 mag
Discoverer Lincoln Laboratory Near-Earth Asteroid Research project

* Pictures

* Orbital Elements

Epoch 2005 Mar. 11.0 TT = JDT 2453440.5
T 2005 Mar. 30.09902 TT                                 MPC
q   2.0474450            (2000.0)            P               Q
z  +0.0011305      Peri.  243.57736     -0.94639640     -0.01922795
 +/-0.0000018      Node    66.17674     +0.06264898     +0.96834387
e   0.9976853      Incl.  159.36176     -0.31687372     +0.24887836
>From 264 observations 2004 June 12-2005 Apr. 5, mean residual 0".64.

* Finding Charts

* Magnitudes Graph

        m1 = 12.7 + 5 log d + 5 log r

---------------------------------------------------------------------

The orbital elements are published on M.P.E.C. 2005-G30.
The charts are made with StellaNavigator Ver.2.0 for Windows (AstroArts / ASCII).
The magnitudes graphs are made with Comet for Windows.

---------------------------------------------------------------------

Copyright(C) Seiichi Yoshida (comet@aerith.net). All rights reserved.